Miscellaneous Local Product
Issued by NWS North Platte, NE

Home | Current Version | Previous Version | Text Only | Print | Product List | Glossary On
Versions: 1 2 3 4 5 6 7 8 9 10 11 12 13 14 15 16 17 18 19 20 21 22 23 24 25 26 27 28 29 30 31 32 33 34 35 36 37 38 39 40 41 42 43 44 45 46 47 48 49 50
000
AXUS43 KLBF 251210
MISLBF


WESTERN AND NORTH CENTRAL NEBRASKA HOURLY WEATHER ROUNDUP
NATIONAL WEATHER SERVICE NORTH PLATTE NE
700 AM CDT WED APR 25 2018

NOTE: "FAIR" INDICATES FEW OR NO CLOUDS BELOW 12,000 FEET WITH NO
SIGNIFICANT WEATHER AND/OR OBSTRUCTIONS TO VISIBILITY.

NOTE: STATIONS NOT REPORTING VARIABLES SUCH AS SKY/WEATHER OR
PRESSURE ARE PROVIDED BY RAWS AND APRS NETWORKS AND ARE NOT UNDER
NATIONAL WEATHER SERVICE QUALITY CONTROL.

...OBSERVATIONS IN AND NEAR THE EASTERN PANHANDLE OF NEBRASKA...

CITY           SKY/WX    TMP DP  RH WIND       PRES   REMARKS
PINE RIDGE     CLEAR     21  19  92 E3        30.32F
GORDON         FAIR      27  24  89 W3        30.32S
CHADRON        CLEAR     23  20  88 SW3       30.33F
ALLIANCE       CLEAR     20  19  96 W7        30.32F WCI  11
SIDNEY         CLEAR     26  24  92 NW8       30.34F WCI  18
CRESCENT LAKE    N/A     29  26  86 W7          N/A  WCI  22
$$

...OBSERVATIONS IN NORTHERN NEBRASKA AND FAR SOUTHERN SOUTH DAKOTA...

CITY           SKY/WX    TMP DP  RH WIND       PRES   REMARKS
WINNER         FAIR      34  28  79 W6        30.32S WCI  29
VALENTINE      CLEAR     31  27  85 W10       30.31F WCI  22
AINSWORTH      CLEAR     33  32  97 NW6       30.31S WCI  27
O`NEILL        PTCLDY    37  35  93 NW7       30.31S WCI  31
THEDFORD       CLEAR     35  32  90 W7        30.33S WCI  29
BROKEN BOW     CLOUDY    39  34  82 NW6       30.30F WCI  35
ORD            CLOUDY    39  38  96 NW3       30.30S
ALBION         CLOUDY    41  36  83 NW9       30.30S
VALENTINE NWR    N/A     50  30  46 NW5         N/A
HALSEY           N/A     35  35  99 NW3         N/A
BUTTE            N/A     32  30  92 NW3         N/A
CHAMBERS         N/A     37  35  94 CALM        N/A
EWING            N/A     38  36  91 NW3         N/A
$$

...OBSERVATIONS IN SOUTHWEST NEBRASKA AND FAR NORTHEAST COLORADO...

CITY           SKY/WX    TMP DP  RH WIND       PRES   REMARKS
WRAY           FAIR      30  28  93 NW9       30.36F WCI  22
HOLYOKE        FAIR      32  30  93 W10       30.35F WCI  24
IMPERIAL       CLEAR     33  29  85 W7        30.34F WCI  27
OGALLALA       PTCLDY    34  30  86 NW14      30.34S WCI  24
NORTH PLATTE   CLOUDY    38  33  82 NW7       30.33F WCI  33
MCCOOK         CLOUDY    38  36  92 NW9       30.34S WCI  31
LEXINGTON      CLOUDY    39  36  86 N8        30.32S WCI  34
STAPLETON        N/A     35  33  91 CALM        N/A
GOTHENBURG       N/A     38  33  84 NW5         N/A  WCI  34
CALLAWAY         N/A     37  35  94 NW8         N/A  WCI  31
$$

...OBSERVATIONS IN CENTRAL LINCOLN COUNTY AREA...

CITY           SKY/WX    TMP DP  RH WIND       PRES   REMARKS
N.P. AIRPORT   CLOUDY    38  33  82 NW7       30.33F WCI  33
N.P. DOWNTOWN    N/A     37  34  88 CALM        N/A
N.P. SOUTHEAST   N/A     37  33  85 CALM        N/A
N.P. HILLCREST   N/A     37  34  89 CALM        N/A
$$

...OBSERVATIONS ACROSS THE ROCKIES AND WESTERN HIGH PLAINS...

CITY           SKY/WX    TMP DP  RH WIND       PRES   REMARKS
RAPID CITY     CLEAR     26  20  77 SE3       30.26F
SCOTTSBLUFF    CLEAR     23  22  96 N5        30.35F WCI  17
CHEYENNE       CLEAR     23  20  88 NW3       30.32F
DENVER         PTCLDY    33  23  66 S5        30.34F WCI  29
BERTHOUD PASS  FAIR      10   1  67 NW9G16    30.38R WCI  -2
MONARCH PASS   CLEAR     21   3  45 W12       30.51R WCI   9
ASPEN          PTCLDY    26  16  65 SW3       30.37R
STEAMBOAT      FAIR      23  20  87 CALM      30.40S
LARAMIE        CLEAR     17  15  92 SE6       30.33S WCI   9
CASPER         CLEAR     31  23  72 SW16      30.30F WCI  20
$$

...OBSERVATIONS ACROSS THE NORTHERN PLAINS...

CITY           SKY/WX    TMP DP  RH WIND       PRES   REMARKS
BISMARCK       CLEAR     30  26  85 CALM      30.22F
FARGO          FAIR      32  28  85 S8        30.26F WCI  25
PIERRE         CLEAR     31  29  92 SW9       30.29F WCI  23
SIOUX FALLS    PTCLDY    31  26  82 NW6       30.28S WCI  25
$$

...OBSERVATIONS ACROSS THE CENTRAL AND SOUTHERN PLAINS...

CITY           SKY/WX    TMP DP  RH WIND       PRES   REMARKS
OMAHA          LGT RAIN  44  40  85 N14       30.23R
GRAND ISLAND   LGT RAIN  40  37  89 N10       30.30S WCI  33
KANSAS CITY    CLOUDY    50  44  80 N7        30.14R
WICHITA        CLOUDY    45  45 100 NW21      30.21F
DODGE CITY     CLOUDY    37  34  89 NW12      30.29F WCI  29
OKLAHOMA CITY  LGT RAIN  47  45  93 N17       30.20R
DALLAS         CLOUDY    65  56  72 NW15      30.05R
AMARILLO       CLOUDY    36  35  96 N21G30    30.32R WCI  25
$$




USA.gov is the U.S. government's official web portal to all federal, state and local government web resources and services.